Weather History for PAGY - November, 2013

Change the Weather History Date:

Thursday, November 21, 2013

  Actual Average Record
Temperature  
Mean Temperature 14 °F -  
Max Temperature 19 °F 35 °F 50 °F (2005)
Min Temperature 10 °F 28 °F 5 °F (1993)
Degree Days  
Heating Degree Days 50    
Moisture  
Dew Point 2 °F    
Average Humidity 58    
Maximum Humidity 79    
Minimum Humidity 41    
Precipitation  
Precipitation 0.00 in - - ()
Sea Level Pressure  
Sea Level Pressure 30.28 in    
Wind  
Wind Speed 16 mph (NNE)    
Max Wind Speed 24 mph    
Max Gust Speed 38 mph    
Visibility 4 miles    
Events Snow    
Averages and records for this station are not official NWS values.
T = Trace of Precipitation, MM = Missing Value Source: NWS Daily Summary

Daily Weather History Graph

Daily Weather History Graph

Search for Another Location

Airport or City:

Trip Planner

Search our weather history database for the weather conditions in past years. The results will help you decide how hot, cold, wet, or windy it might be!

Date:

Astronomy

Nov. 21, 2013 Rise Set
Actual Time 8:11 AM AKST 3:22 PM AKST
Civil Twilight 7:21 AM AKST 4:12 PM AKST
Nautical Twilight 6:29 AM AKST 5:04 PM AKST
Astronomical Twilight 5:40 AM AKST 5:53 PM AKST
Moon 7:16 PM AKST (11/21) 11:14 AM AKST (11/21)
Length of Visible Light 8h 51m
Length of Day
7h 11m
Waning Gibbous, 84% of the Moon is Illuminated
Nov 21
Waning Gibbous
Nov 25
Last Quarter
Dec 2
New
Dec 9
First Quarter
Dec 17
Full

Hourly Weather History & Observations

Time (AKST) Temp. Windchill Dew Point Humidity Pressure Visibility Wind Dir Wind Speed Gust Speed Precip Events Conditions
12:53 AM 12.0 °F -4.0 °F -4.0 °F 49% 30.34 in 9.0 mi NNE 15.0 mph 21.9 mph N/A   Overcast
1:53 AM 12.0 °F -5.6 °F -2.9 °F 51% 30.31 in 6.0 mi NNE 18.4 mph 26.5 mph 0.00 in Snow Light Snow
3:53 AM 12.9 °F -6.5 °F -0.9 °F 54% 30.26 in 4.0 mi NNE 24.2 mph 31.1 mph 0.00 in Snow Light Snow
4:15 AM 12.2 °F -5.8 °F -0.4 °F 57% 30.26 in 2.5 mi NNE 19.6 mph 31.1 mph 0.00 in Snow Light Snow
4:34 AM 12.2 °F -5.3 °F -0.4 °F 57% 30.25 in 3.0 mi NNE 18.4 mph 28.8 mph 0.00 in Snow Light Snow
4:50 AM 12.2 °F -4.8 °F -0.4 °F 57% 30.24 in 4.0 mi NE 17.3 mph 31.1 mph 0.00 in Snow Light Snow
4:53 AM 12.0 °F -6.0 °F -2.0 °F 53% 30.25 in 4.0 mi NE 19.6 mph 28.8 mph 0.00 in Snow Light Snow
5:53 AM 12.0 °F -6.5 °F -0.9 °F 56% 30.24 in 3.0 mi NNE 20.7 mph 38.0 mph 0.00 in Snow Light Snow
6:00 AM 12.2 °F -5.8 °F -0.4 °F 57% 30.24 in 2.5 mi NNE 19.6 mph 31.1 mph 0.00 in Snow Light Snow
6:53 AM 12.0 °F -6.5 °F -0.0 °F 59% 30.25 in 1.8 mi NNE 20.7 mph 35.7 mph 0.00 in Snow Light Snow
7:45 AM 10.4 °F -9.5 °F 1.4 °F 67% 30.25 in 2.0 mi NNE 23.0 mph 28.8 mph 0.00 in Snow Light Snow
7:53 AM 10.9 °F -8.3 °F 1.0 °F 64% 30.25 in 1.8 mi NNE 21.9 mph 33.4 mph 0.00 in Snow Light Snow
8:06 AM 12.2 °F -5.3 °F -0.4 °F 57% 30.26 in 2.0 mi NNE 18.4 mph 32.2 mph 0.00 in Snow Light Snow
8:53 AM 12.0 °F -6.0 °F -0.0 °F 59% 30.27 in 2.5 mi NNE 19.6 mph 29.9 mph 0.00 in Snow Light Snow
9:04 AM 12.2 °F -4.8 °F -0.4 °F 57% 30.27 in 1.5 mi NNE 17.3 mph 31.1 mph 0.00 in Snow Light Snow
9:53 AM 12.0 °F -4.5 °F -0.0 °F 59% 30.28 in 1.5 mi NNE 16.1 mph 35.7 mph 0.00 in Snow Light Snow
10:07 AM 12.2 °F -4.3 °F -0.4 °F 57% 30.28 in 2.0 mi NNE 16.1 mph 33.4 mph 0.00 in Snow Light Snow
10:22 AM 12.2 °F -1.8 °F -0.4 °F 57% 30.28 in 3.0 mi NNE 11.5 mph 25.3 mph 0.00 in Snow Light Snow
10:53 AM 12.9 °F -3.9 °F -0.0 °F 56% 30.29 in 3.0 mi NNE 17.3 mph 28.8 mph 0.00 in Snow Light Snow
11:53 AM 14.0 °F 3.9 °F 1.0 °F 56% 30.31 in 5.0 mi NE 6.9 mph 24.2 mph 0.00 in Snow Light Snow
12:27 PM 14.0 °F -0.2 °F 1.4 °F 57% 30.30 in 2.0 mi North 12.7 mph 21.9 mph 0.00 in Snow Light Snow
12:41 PM 14.0 °F -0.8 °F 1.4 °F 57% 30.30 in 5.0 mi NNE 13.8 mph 17.3 mph 0.00 in Snow Light Snow
12:53 PM 14.0 °F 0.5 °F -0.0 °F 54% 30.31 in 9.0 mi NNE 11.5 mph 29.9 mph 0.00 in   Overcast
1:53 PM 16.0 °F 5.3 °F -2.0 °F 45% 30.30 in 10.0 mi NNE 8.1 mph - N/A   Overcast
2:53 PM 16.0 °F 2.3 °F -2.0 °F 45% 30.30 in 10.0 mi NNE 12.7 mph 25.3 mph N/A   Overcast
3:53 PM 17.1 °F 4.3 °F -2.9 °F 41% 30.31 in 10.0 mi NNE 11.5 mph 21.9 mph N/A   Overcast
4:53 PM 17.1 °F 3.0 °F -0.9 °F 45% 30.33 in 10.0 mi NNE 13.8 mph 21.9 mph N/A   Overcast
5:53 PM 17.1 °F 4.3 °F -0.9 °F 45% 30.32 in 10.0 mi NNE 11.5 mph 21.9 mph N/A   Overcast
6:53 PM 18.0 °F 3.6 °F -0.0 °F 45% 30.31 in 10.0 mi NNE 15.0 mph 23.0 mph N/A   Overcast
7:53 PM 16.0 °F 8.8 °F 6.1 °F 65% 30.32 in 4.0 mi Variable 4.6 mph - 0.00 in Snow Light Snow
8:53 PM 16.0 °F 8.8 °F 9.0 °F 74% 30.31 in 4.0 mi Variable 4.6 mph - 0.00 in Snow Light Snow
9:53 PM 17.1 °F 10.0 °F 10.0 °F 74% 30.29 in 4.0 mi Variable 4.6 mph - 0.00 in Snow Light Snow
10:53 PM 19.0 °F 11.1 °F 10.9 °F 71% 30.27 in 6.0 mi Variable 5.8 mph - 0.00 in Snow Light Snow
11:12 PM 17.6 °F 10.7 °F 10.4 °F 73% 30.26 in 2.0 mi Variable 4.6 mph - 0.00 in Snow Light Snow
11:34 PM 17.6 °F 12.3 °F 10.4 °F 73% 30.25 in 1.8 mi Variable 3.5 mph - 0.00 in Snow Light Snow
11:51 PM 17.6 °F 12.3 °F 12.2 °F 79% 30.24 in 2.5 mi Variable 3.5 mph - 0.00 in Snow Light Snow
11:53 PM 18.0 °F - 12.0 °F 78% 30.25 in 2.5 mi Calm Calm - 0.00 in Snow Light Snow